Weather reports worldwide

Advertisment
Aachen-Orsbach, Germany (10505): temperature & dewpoint: 20.03.2019 08:00:00 - 26.03.2019 08:00:00 (CET)Aachen-Orsbach, Germany (10505): temperature 5cm & temperature -5cm: 20.03.2019 08:00:00 - 26.03.2019 08:00:00 (CET)Aachen-Orsbach, Germany (10505): temperature -20cm & temperature -100cm: 20.03.2019 08:00:00 - 26.03.2019 08:00:00 (CET)Aachen-Orsbach, Germany (10505): wind speed & gusts: 20.03.2019 08:00:00 - 26.03.2019 08:00:00 (CET)Aachen-Orsbach, Germany (10505): wind direction: 20.03.2019 08:00:00 - 26.03.2019 08:00:00 (CET)Aachen-Orsbach, Germany (10505): reduced air pressure: 20.03.2019 08:00:00 - 26.03.2019 08:00:00 (CET)Aachen-Orsbach, Germany (10505): visibility: 20.03.2019 08:00:00 - 26.03.2019 08:00:00 (CET)Aachen-Orsbach, Germany (10505): sunshine duration: 20.03.2019 08:00:00 - 26.03.2019 08:00:00 (CET)Aachen-Orsbach, Germany (10505): precipitation: 20.03.2019 08:00:00 - 26.03.2019 08:00:00 (CET)
Date & Time tt [°C] td [°C] tt 5cm [°C] tt -5cm [°C] tt -20cm [°C] tt -100cm [°C] ff [km/h] ff [kn] fx [km/h] fx [kn] dd ppp [hPa] vv [km] sd [min] rr [mm]
26.03.2019 08:00:00 4,5 1,7 4,2 5,5 6,9 7,3 13 7 18 10 NW 1032,4 28 0 0,0
26.03.2019 07:00:00 3,9 2,6 3,6 5,3 7,0 7,3 5 3 9 5 W 1031,9 21 0 0,2
26.03.2019 06:00:00 4,0 2,3 3,8 5,3 7,1 7,3 4 2 10 5 W 1031,9 13 0 0,0
26.03.2019 05:00:00 3,9 2,0 3,7 5,4 7,1 7,3 5 3 10 6 WNW 1031,9 27 0 0,0
26.03.2019 04:00:00 4,3 1,3 4,0 5,4 7,2 7,3 6 3 16 9 NNW 1031,6 36 0 0,0
26.03.2019 03:00:00 4,5 0,8 4,3 5,5 7,3 7,3 10 6 21 11 NNW 1031,5 36 0 0,0
26.03.2019 02:00:00 4,6 1,2 4,3 5,6 7,4 7,3 14 8 23 13 NNW 1031,5 37 0 0,0
26.03.2019 01:00:00 4,7 1,4 4,4 5,9 7,5 7,3 19 10 28 15 NNW 1031,3 34 0 0,0
26.03.2019 00:00:00 5,1 1,9 4,9 5,9 7,6 7,3 16 9 24 13 NNW 1031,2 32 0 0,0
25.03.2019 23:00:00 5,2 1,7 4,8 6,1 7,7 7,3 14 8 29 16 NNW 1030,6 37 0 0,0
25.03.2019 22:00:00 5,5 1,6 5,2 6,4 7,8 7,3 18 10 36 19 NW 1029,9 33 0 0,0
25.03.2019 21:00:00 6,0 1,2 5,5 6,6 7,8 7,2 24 13 44 24 NNW 1028,9 37 0 0,0
25.03.2019 20:00:00 6,5 1,6 6,0 7,0 7,9 7,2 22 12 35 19 NNW 1027,8 31 0 0,0
25.03.2019 19:00:00 6,4 2,2 6,0 7,4 7,9 7,2 23 12 44 24 NW 1026,8 33 2 0,0
25.03.2019 18:00:00 6,5 2,2 6,0 8,0 7,9 7,2 28 15 61 33 NW 1026,1 39 8 0,0
25.03.2019 17:00:00 7,4 1,6 7,6 8,7 7,9 7,2 37 20 59 32 NW 1025,0 47 6 0,0
25.03.2019 16:00:00 7,6 2,6 8,0 9,3 7,7 7,2 28 15 53 29 WNW 1024,5 44 18 0,0
25.03.2019 15:00:00 5,7 3,2 6,3 9,9 7,6 7,2 36 20 55 30 WNW 1024,8 39 35 0,2
25.03.2019 14:00:00 5,3 2,9 5,5 9,7 7,4 7,2 38 20 61 33 NW 1024,9 20 19 0,1
25.03.2019 13:00:00 8,6 0,2 10,9 9,3 7,2 7,2 36 20 58 31 WNW 1024,0 46 39 0,0
25.03.2019 12:00:00 6,9 2,0 9,2 8,1 7,1 7,2 37 20 54 29 WNW 1024,3 49 34 0,0
25.03.2019 11:00:00 6,6 0,3 7,0 7,1 7,1 7,2 27 15 47 26 WNW 1023,6 34 10 0,0
25.03.2019 10:00:00 6,1 1,7 7,5 6,2 7,1 7,2 29 15 46 25 W 1023,3 30 22 0,0
25.03.2019 09:00:00 4,9 1,8 5,3 5,7 7,2 7,2 27 15 40 22 W 1023,3 28 25 0,0
25.03.2019 08:00:00 4,3 2,4 4,6 4,8 7,3 7,2 23 12 33 18 W 1022,9 32 43 0,0
25.03.2019 07:00:00 3,6 1,7 2,9 4,9 7,4 7,2 25 14 37 20 W 1022,5 23 0 0,0
25.03.2019 06:00:00 4,1 1,6 3,8 4,8 7,5 7,2 27 14 35 19 W 1022,2 30 0 0,0
25.03.2019 05:00:00 4,1 0,9 3,7 4,8 7,7 7,2 27 15 35 19 W 1022,3 38 0 0,0
25.03.2019 04:00:00 4,0 0,6 3,6 4,7 7,9 7,2 25 14 34 18 W 1022,7 34 0 0,0
25.03.2019 03:00:00 3,2 -0,5 2,5 4,5 8,1 7,1 19 10 27 14 WSW 1023,6 34 0 0,0
25.03.2019 02:00:00 2,9 -0,4 1,8 4,7 8,3 7,1 13 7 20 11 WSW 1024,2 39 0 0,0
25.03.2019 01:00:00 3,7 0,3 3,0 4,8 8,6 7,1 13 7 18 10 WSW 1024,9 39 0 0,0
25.03.2019 00:00:00 2,1 -0,8 -0,3 5,0 8,9 7,1 12 7 15 8 WSW 1025,9 39 0 0,0
24.03.2019 23:00:00 2,5 -0,9 -0,8 5,8 9,1 7,1 9 5 19 10 W 1026,4 44 0 0,0
24.03.2019 22:00:00 3,8 -0,4 1,9 6,6 9,4 7,1 11 6 18 10 WNW 1026,5 39 0 0,0
24.03.2019 21:00:00 4,3 -1,2 1,8 7,3 9,6 7,1 13 7 17 9 WNW 1026,4 45 0 0,0
24.03.2019 20:00:00 5,3 -1,9 -0,6 8,7 9,7 7,1 8 4 12 7 WNW 1026,4 51 0 0,0
24.03.2019 19:00:00 6,6 -1,5 4,1 10,5 9,6 7,1 10 6 18 10 NW 1026,0 57 37 0,0
24.03.2019 18:00:00 9,0 -1,2 9,3 12,5 9,5 7,1 14 7 20 11 WNW 1025,8 52 60 0,0
24.03.2019 17:00:00 9,7 -1,8 11,4 13,7 9,3 7,1 13 7 23 13 NW 1026,1 55 60 0,0
24.03.2019 16:00:00 10,2 0,3 12,6 13,9 9,0 7,1 16 9 25 14 NNW 1026,3 55 60 0,0
24.03.2019 15:00:00 9,8 1,5 11,0 13,4 8,7 7,1 14 8 24 13 NW 1026,8 38 11 0,0
24.03.2019 14:00:00 9,3 2,5 10,8 14,3 8,4 7,1 18 10 26 14 NW 1027,2 37 28 0,0
24.03.2019 13:00:00 10,3 4,1 14,9 13,7 8,2 7,1 8 5 20 11 W 1027,0 29 58 0,0
24.03.2019 12:00:00 8,4 4,8 10,6 10,4 8,1 7,1 14 8 22 12 NW 1028,0 14 9 0,0
24.03.2019 11:00:00 7,3 5,2 9,3 9,0 8,1 7,1 13 7 19 10 NW 1028,2 6 0 0,0
24.03.2019 10:00:00 6,4 5,2 7,9 8,1 8,1 7,1 3 2 10 6 NNW 1027,8 3,3 0 0,0
24.03.2019 09:00:00 5,6 4,7 6,3 7,4 8,2 7,0 7 4 11 6 NE 1028,1 3,0 0 0,0
24.03.2019 08:00:00 5,4 4,8 5,6 7,3 8,2 7,0 7 4 13 7 NE 1028,5 2,6 0 0,0
24.03.2019 07:00:00 5,5 4,7 5,6 7,4 8,3 7,0 10 5 16 9 NNE 1028,2 5 0 0,0
24.03.2019 06:00:00 6,2 5,1 6,3 7,6 8,4 7,0 9 5 14 8 NNE 1028,4 7 0 0,0
24.03.2019 05:00:00 6,6 5,4 6,6 7,8 8,4 7,0 12 6 19 11 NNE 1028,5 9 0 0,0
24.03.2019 04:00:00 7,1 5,6 7,0 8,0 8,5 7,0 14 8 19 10 NNE 1028,8 13 0 0,0
24.03.2019 03:00:00 7,5 6,2 7,5 8,3 8,5 7,0 13 7 21 11 NNE 1029,0 9 0 0,0
24.03.2019 02:00:00 8,0 7,3 8,0 8,4 8,6 7,0 10 5 16 9 NE 1029,2 3,2 0 0,0
24.03.2019 01:00:00 8,1 7,3 8,1 8,5 8,6 7,0 10 6 18 10 NE 1029,4 3,4 0 0,0
24.03.2019 00:00:00 8,2 7,3 8,2 8,6 8,7 7,0 10 5 16 8 NNE 1029,9 3,9 0 0,0
23.03.2019 23:00:00 8,4 7,6 8,4 8,6 8,7 7,0 9 5 14 8 NE 1030,2 2,8 0 0,0
23.03.2019 22:00:00 8,4 7,2 8,3 8,7 8,8 7,0 8 5 16 8 NNE 1030,7 3,2 0 0,0
23.03.2019 21:00:00 8,6 6,6 8,3 8,9 8,8 7,0 9 5 13 7 NNE 1030,8 4,3 0 0,0
23.03.2019 20:00:00 8,5 6,6 8,1 9,2 8,8 7,0 4 2 12 7 NE 1030,7 4,6 0 0,0
23.03.2019 19:00:00 8,7 6,3 8,5 9,7 8,8 7,0 8 4 11 6 N 1030,7 6 0 0,0
23.03.2019 18:00:00 9,1 6,1 9,2 10,3 8,7 7,0 7 4 13 7 NNE 1030,5 7 0 0,0
23.03.2019 17:00:00 9,3 6,1 9,8 10,8 8,6 7,0 8 4 13 7 NW 1030,5 6 0 0,0
23.03.2019 16:00:00 9,5 5,9 10,4 11,1 8,5 7,0 5 3 8 5 NW 1030,6 7 0 0,0
23.03.2019 15:00:00 9,2 5,4 10,2 11,0 8,3 7,0 8 4 16 9 NW 1030,9 7 0 0,0
23.03.2019 14:00:00 9,3 5,1 10,9 11,2 8,2 7,0 11 6 16 9 NW 1031,0 7 0 0,0
23.03.2019 13:00:00 9,4 4,5 11,0 11,2 8,0 6,9 4 2 13 7 N 1030,7 8 0 0,0
23.03.2019 12:00:00 8,8 4,8 11,5 9,8 7,9 6,9 4 2 15 8 NNW 1030,7 7 0 0,0
23.03.2019 11:00:00 7,8 4,4 9,6 9,1 7,9 6,9 7 4 13 7 WSW 1030,9 4,4 0 0,0
23.03.2019 10:00:00 6,8 4,5 7,7 7,6 7,9 6,9 6 3 14 7 SW 1030,8 3,8 0 0,0
23.03.2019 09:00:00 6,0 4,1 6,3 7,1 8,0 6,9 8 4 16 9 W 1030,6 3,6 0 0,0
23.03.2019 08:00:00 5,5 4,3 5,6 6,9 8,1 6,9 9 5 16 9 W 1030,3 3,6 0 0,0
23.03.2019 07:00:00 5,5 5,5 5,7 6,8 8,2 6,9 8 5 14 7 W 1030,0 0,1 0 0,0
23.03.2019 06:00:00 5,3 5,3 5,5 6,7 8,3 6,9 11 6 17 9 W 1029,7 0,1 0 0,0
23.03.2019 05:00:00 5,1 5,0 5,3 6,6 8,5 6,9 12 7 18 10 W 1029,2 0,1 0 0,0
23.03.2019 04:00:00 5,4 5,2 5,5 6,3 8,7 6,9 14 7 19 10 W 1028,9 0,1 0 0,0
23.03.2019 03:00:00 5,2 2,8 3,4 6,0 8,9 6,9 15 8 19 10 W 1028,8 10 0 0,0
23.03.2019 02:00:00 8,3 3,5 1,2 6,4 9,2 6,9 7 4 10 5 WSW 1028,2 11 0 0,0
23.03.2019 01:00:00 8,8 3,9 1,6 7,1 9,4 6,9 6 3 18 10 WSW 1028,0 14 0 0,0
23.03.2019 00:00:00 8,3 3,5 5,7 7,8 9,7 6,9 16 8 19 10 WSW 1028,1 22 0 0,0
22.03.2019 23:00:00 9,4 3,6 6,0 8,4 9,9 6,9 13 7 18 10 WSW 1027,9 26 0 0,0
22.03.2019 22:00:00 9,6 4,2 4,3 9,3 10,1 6,9 11 6 13 7 SW 1027,6 29 0 0,0
22.03.2019 21:00:00 10,4 4,8 4,9 10,4 10,2 6,9 10 5 12 7 SW 1027,4 34 0 0,0
22.03.2019 20:00:00 12,7 5,2 6,5 12,0 10,2 6,9 9 5 18 10 WSW 1027,1 40 0 0,0
22.03.2019 19:00:00 14,7 2,9 11,5 14,1 10,0 6,9 14 7 18 10 SSW 1026,1 66 33 0,0
22.03.2019 18:00:00 18,4 5,4 17,3 16,5 9,7 6,9 3 2 11 6 WSW 1025,6 46 60 0,0
22.03.2019 17:00:00 18,7 5,9 19,7 17,8 9,3 6,9 6 4 10 5 NW 1025,8 48 60 0,0
22.03.2019 16:00:00 18,5 6,1 20,5 18,1 8,8 6,9 8 4 14 8 NNW 1026,2 69 60 0,0
22.03.2019 15:00:00 17,9 6,9 20,4 18,1 8,2 6,9 11 6 17 9 NNW 1026,9 57 60 0,0
22.03.2019 14:00:00 17,1 5,9 20,0 17,3 7,7 6,9 13 7 20 11 NNE 1027,7 38 60 0,0
22.03.2019 13:00:00 16,7 3,5 19,9 16,1 7,2 6,9 11 6 16 9 NNE 1028,5 34 60 0,0
22.03.2019 12:00:00 15,8 2,3 18,5 14,0 6,8 6,9 8 4 12 7 NW 1029,6 40 60 0,0
22.03.2019 11:00:00 15,2 3,1 16,9 11,7 6,5 6,9 7 4 11 6 NE 1030,2 49 60 0,0
22.03.2019 10:00:00 13,4 5,2 15,4 9,0 6,4 6,9 8 4 10 5 E 1030,8 41 60 0,0
22.03.2019 09:00:00 12,4 5,6 10,3 6,0 6,5 6,9 5 3 7 4 E 1030,9 36 60 0,0
22.03.2019 08:00:00 8,8 4,0 5,9 3,8 6,7 6,9 6 3 10 6 ESE 1031,0 18 50 0,0
22.03.2019 07:00:00 5,0 3,3 0,6 3,3 6,9 6,9 8 5 9 5 E 1031,5 6 0 0,0
22.03.2019 06:00:00 7,1 4,4 0,2 3,6 7,1 6,9 7 4 9 5 ESE 1030,9 8 0 0,0
22.03.2019 05:00:00 7,7 4,4 1,4 3,9 7,3 6,9 8 4 10 5 SE 1030,9 10 0 0,0
22.03.2019 04:00:00 6,9 4,1 -0,3 4,2 7,5 6,9 7 4 9 5 ESE 1031,3 13 0 0,0
22.03.2019 03:00:00 7,5 4,2 -0,6 4,6 7,8 6,9 6 3 8 4 ESE 1031,6 11 0 0,0
22.03.2019 02:00:00 7,9 4,5 0,7 5,1 8,0 6,9 5 3 6 3 SE 1031,9 15 0 0,0
22.03.2019 01:00:00 8,7 4,6 0,1 5,6 8,2 6,9 3 2 6 3 SE 1032,1 20 0 0,0
22.03.2019 00:00:00 8,9 4,8 0,6 6,2 8,5 6,9 4 2 8 5 E 1032,5 22 0 0,0
21.03.2019 23:00:00 8,8 4,6 1,3 6,9 8,7 6,9 5 3 8 5 ESE 1032,7 28 0 0,0
21.03.2019 22:00:00 10,4 4,8 2,5 7,8 8,9 6,9 7 4 9 5 ENE 1032,9 27 0 0,0
21.03.2019 21:00:00 10,0 4,8 2,7 8,8 9,0 6,9 6 4 9 5 E 1033,0 31 0 0,0
21.03.2019 20:00:00 10,7 4,9 3,6 10,2 9,0 6,9 7 4 13 7 ENE 1032,7 39 0 0,0
21.03.2019 19:00:00 12,5 5,1 9,6 12,1 8,9 6,9 9 5 14 8 NE 1032,4 35 30 0,0
21.03.2019 18:00:00 13,5 6,1 13,5 14,0 8,6 6,9 10 5 19 10 NNE 1032,1 30 60 0,0
21.03.2019 17:00:00 14,3 6,7 15,5 15,5 8,2 6,9 10 5 17 9 N 1032,4 36 60 0,0
21.03.2019 16:00:00 14,7 5,5 17,2 16,4 7,8 6,9 9 5 19 10 NNE 1032,5 32 60 0,0
21.03.2019 15:00:00 15,2 5,4 19,0 16,6 7,2 6,9 5 3 16 9 N 1032,9 34 60 0,0
21.03.2019 14:00:00 14,1 3,5 17,5 15,9 6,7 6,9 7 4 15 8 NNW 1033,6 44 60 0,0
21.03.2019 13:00:00 13,7 4,0 16,4 14,6 6,2 6,9 5 3 13 7 NNW 1034,2 44 60 0,0
21.03.2019 12:00:00 13,4 4,2 16,0 13,1 5,7 6,9 7 4 13 7 NW 1034,5 47 60 0,0
21.03.2019 11:00:00 12,6 4,4 14,5 10,6 5,4 6,9 8 4 12 7 WNW 1034,7 37 60 0,0
21.03.2019 10:00:00 12,2 3,9 12,5 8,0 5,3 6,9 3 2 6 4 WSW 1034,8 42 60 0,0
21.03.2019 09:00:00 10,8 4,5 8,8 4,8 5,4 6,9 2 1 6 3 ESE 1034,8 45 60 0,0
21.03.2019 08:00:00 7,5 3,9 5,1 2,7 5,6 6,9 3 2 11 6 SSE 1035,2 36 41 0,0
21.03.2019 07:00:00 4,1 2,3 -0,5 2,4 5,7 6,9 9 5 10 5 S 1035,3 21 0 0,0
21.03.2019 06:00:00 6,6 3,2 -1,2 2,6 5,9 6,9 7 4 8 4 SSW 1034,8 30 0 0,0
21.03.2019 05:00:00 5,6 2,6 -0,8 2,9 6,1 6,9 5 3 8 4 S 1034,7 28 0 0,0
21.03.2019 04:00:00 4,8 2,8 -0,6 3,2 6,2 6,9 5 3 8 4 S 1034,8 18 0 0,0
21.03.2019 03:00:00 6,9 4,2 -0,5 3,5 6,4 6,9 3 2 7 4 SSW 1034,9 21 0 0,0
21.03.2019 02:00:00 5,5 3,5 0,3 3,9 6,6 6,9 6 4 9 5 S 1035,2 22 0 0,0
21.03.2019 01:00:00 6,2 3,9 0,8 4,3 6,8 6,9 5 3 10 5 SE 1035,0 33 0 0,0
21.03.2019 00:00:00 7,3 4,0 0,1 4,8 7,0 6,9 4 2 10 5 SE 1035,1 43 0 0,0
20.03.2019 23:00:00 5,8 3,2 0,7 5,5 7,1 6,9 8 4 9 5 SSW 1035,4 50 0 0,0
20.03.2019 22:00:00 8,4 4,1 1,2 6,5 7,2 6,9 3 2 6 4 SSW 1035,2 48 0 0,0
20.03.2019 21:00:00 8,2 5,0 5,2 7,5 7,2 6,9 7 4 8 4 SSW 1035,0 51 0 0,0
20.03.2019 20:00:00 9,0 5,1 5,9 8,2 7,2 6,9 5 3 8 4 WSW 1034,6 49 0 0,0
20.03.2019 19:00:00 9,3 5,0 6,1 9,4 7,0 6,9 6 3 11 6 W 1034,4 55 0 0,0
20.03.2019 18:00:00 10,4 5,6 10,2 10,3 6,8 6,9 8 5 12 7 W 1034,0 55 17 0,0
20.03.2019 17:00:00 11,1 5,4 11,5 10,9 6,6 6,9 9 5 16 8 W 1033,8 48 0 0,0
20.03.2019 16:00:00 11,5 5,5 12,7 11,2 6,3 6,9 10 5 18 10 W 1034,1 54 0 0,0
20.03.2019 15:00:00 11,5 5,0 12,8 11,1 5,9 6,9 10 5 21 11 W 1034,1 44 0 0,0
20.03.2019 14:00:00 11,2 4,4 13,0 11,0 5,6 6,9 12 6 24 13 WSW 1034,2 48 25 0,0
20.03.2019 13:00:00 10,4 3,8 11,6 9,8 5,3 6,9 16 9 26 14 WSW 1034,5 61 13 0,0
20.03.2019 12:00:00 10,1 4,2 11,6 8,6 5,0 6,9 18 10 28 15 WSW 1034,4 52 3 0,0
20.03.2019 11:00:00 9,1 3,8 10,3 6,7 4,9 6,9 17 9 24 13 SW 1034,5 50 0 0,0
20.03.2019 10:00:00 7,8 2,5 8,5 5,2 4,8 6,9 16 9 26 14 SW 1034,4 56 0 0,0
20.03.2019 09:00:00 6,5 0,9 6,6 4,0 4,9 6,9 20 11 29 16 SSW 1033,9 43 0 0,0
20.03.2019 08:00:00 5,7 0,2 5,4 3,3 4,9 6,9 19 10 27 14 SSW 1033,6 44 0 0,0

tt = temperature
td = dewpoint
tt 5cm = temperature 5cm
tt -5cm = temperature -5cm
tt -20cm = temperature -20cm
tt -100cm = temperature -100cm
ff = wind speed
fx = gusts
dd = wind direction
ppp = reduced air pressure
vv = visibility
sd = sunshine duration
rr = precipitation

Next stations